Weather History for Morgantown, WV

Change the Weather History Date:

Monday, August 5, 2013

  Actual Average Record
Temperature  
Mean Temperature 65 °F 73 °F  
Max Temperature 76 °F 83 °F 95 °F (1955)
Min Temperature 53 °F 63 °F 49 °F (1951)
Degree Days  
Heating Degree Days 0 0  
Month to date heating degree days 0 0  
Since 1 June heating degree days 12 34  
Since 1 July heating degree days 1 3  
Cooling Degree Days 0 8  
Month to date cooling degree days 18 40  
Year to date cooling degree days 612 524  
Since 1 June cooling degree days 466 457  
Growing Degree Days 14 (Base 50)    
Moisture  
Dew Point 53 °F    
Average Humidity 69    
Maximum Humidity 93    
Minimum Humidity 44    
Precipitation  
Precipitation 0.00 in 0.12 in 5.01 in (1956)
Month to date precipitation 0.44 0.60  
Year to date precipitation 24.50 26.52  
Sea Level Pressure  
Sea Level Pressure 30.10 in    
Wind  
Wind Speed 2 mph (NNE)    
Max Wind Speed 7 mph    
Max Gust Speed 9 mph    
Visibility 10 miles    
Events      
T = Trace of Precipitation, MM = Missing Value Source: NWS Daily Summary

Daily Weather History Graph

Daily Weather History Graph

Search for Another Location

Airport:

Trip Planner

Search our weather history database for the weather conditions in past years. The results will help you decide how hot, cold, wet, or windy it might be!

Date:

Astronomy

Aug. 05, 2013 Rise Set
Actual Time 6:22 AM EDT 8:27 PM EDT
Civil Twilight 5:53 AM EDT 8:57 PM EDT
Nautical Twilight 5:16 AM EDT 9:33 PM EDT
Astronomical Twilight 4:37 AM EDT 10:12 PM EDT
Moon 5:16 AM EDT (8/5) 7:27 PM EDT (8/5)
Length of Visible Light 15h 04m
Length of Day
14h 05m
Waning Crescent, 1% of the Moon is Illuminated
Aug 5
Waning Crescent
Aug 6
New
Aug 14
First Quarter
Aug 20
Full
Aug 28
Last Quarter

Hourly Weather History & Observations

Time (EDT) Temp. Dew Point Humidity Pressure Visibility Wind Dir Wind Speed Gust Speed Precip Events Conditions
12:53 AM 57.9 °F 55.0 °F 90% 30.13 in 10.0 mi Calm Calm - N/A   Clear
1:53 AM 57.0 °F 55.0 °F 93% 30.12 in 10.0 mi Calm Calm - N/A   Clear
2:53 AM 57.0 °F 54.0 °F 89% 30.12 in 10.0 mi Calm Calm - N/A   Clear
3:53 AM 55.9 °F 54.0 °F 93% 30.13 in 10.0 mi Calm Calm - N/A   Clear
4:53 AM 55.0 °F 53.1 °F 93% 30.13 in 10.0 mi South 3.5 mph - N/A   Clear
5:53 AM 55.0 °F 52.0 °F 89% 30.13 in 10.0 mi Calm Calm - N/A   Clear
6:53 AM 54.0 °F 52.0 °F 93% 30.14 in 10.0 mi Calm Calm - N/A   Clear
7:53 AM 57.9 °F 55.0 °F 90% 30.14 in 10.0 mi Calm Calm - N/A   Clear
8:53 AM 61.0 °F 55.9 °F 83% 30.15 in 10.0 mi Calm Calm - N/A   Clear
9:53 AM 66.0 °F 53.1 °F 63% 30.15 in 10.0 mi Calm Calm - N/A   Clear
10:53 AM 69.1 °F 52.0 °F 54% 30.15 in 10.0 mi Calm Calm - N/A   Clear
11:53 AM 71.1 °F 50.0 °F 47% 30.14 in 10.0 mi Calm Calm - N/A   Scattered Clouds
12:53 PM 72.0 °F 50.0 °F 46% 30.12 in 10.0 mi West 4.6 mph - N/A   Mostly Cloudy
1:53 PM 73.0 °F 51.1 °F 46% 30.09 in 10.0 mi Variable 3.5 mph - N/A   Partly Cloudy
2:53 PM 71.1 °F 50.0 °F 47% 30.08 in 10.0 mi NNE 5.8 mph - N/A   Mostly Cloudy
3:53 PM 72.0 °F 48.9 °F 44% 30.06 in 10.0 mi Calm Calm - N/A   Mostly Cloudy
4:53 PM 73.9 °F 52.0 °F 46% 30.06 in 10.0 mi North 4.6 mph - N/A   Clear
5:53 PM 72.0 °F 53.1 °F 51% 30.07 in 10.0 mi North 3.5 mph - N/A   Partly Cloudy
6:53 PM 70.0 °F 54.0 °F 57% 30.07 in 10.0 mi NE 3.5 mph - N/A   Partly Cloudy
7:53 PM 68.0 °F 55.9 °F 65% 30.05 in 10.0 mi NNE 3.5 mph - N/A   Clear
8:53 PM 66.0 °F 55.9 °F 70% 30.05 in 10.0 mi Calm Calm - N/A   Clear
9:53 PM 64.9 °F 55.9 °F 73% 30.05 in 10.0 mi Calm Calm - N/A   Clear
10:53 PM 64.9 °F 55.9 °F 73% 30.04 in 10.0 mi Calm Calm - N/A   Clear
11:53 PM 64.0 °F 55.9 °F 75% 30.03 in 10.0 mi Calm Calm - N/A   Clear